Regional Weather Roundup
Issued by NWS

Home | Current Version | Previous Version | Text Only | Print | Product List | Glossary Off
Versions: 1 2 3 4 5 6 7 8 9 10 11 12 13 14 15 16 17 18 19 20 21 22 23 24 25 26 27 28 29 30 31 32 33 34 35 36 37 38 39 40 41 42 43 44 45 46 47 48 49 50

000
ASUS45 KCYS 260910
RWRWY

WYOMING REGIONAL WEATHER ROUNDUP
NATIONAL WEATHER SERVICE CHEYENNE WY
300 AM MDT SUN APR 26 2015

NOTE:  "FAIR" INDICATES FEW OR NO CLOUDS BELOW 12,000 FEET
WITH NO SIGNIFICANT WEATHER AND/OR OBSTRUCTIONS TO VISIBILITY.

WYZ001-261000-
YELLOWSTONE NATIONAL PARK

CITY           SKY/WX    TMP DP  RH WIND       PRES   REMARKS
LK YELLOWSTONE   N/A     32  28  85 CALM      29.82S
W YELLOWSTONE  NOT AVBL

$$
WYZ002>013-054>058-071-098>099-261000-
NORTHERN WYOMING

CITY           SKY/WX    TMP DP  RH WIND       PRES   REMARKS
JACKSON        CLOUDY    37  30  75 N12       29.76S WCI  30
CODY           CLOUDY    41  30  65 N6        29.85S
GREYBULL       CLOUDY    44  35  70 NE3       29.81F
WORLAND        CLOUDY    42  36  79 NE3       29.82F
SHERIDAN       CLOUDY    40  34  79 E3        29.91S
BUFFALO        CLOUDY    38  33  82 E5        29.91R WCI  34
GILLETTE       CLOUDY    39  34  82 N10       29.89F WCI  32
HULETT         CLOUDY    37  36  93 CALM      29.93R FOG
NEWCASTLE      CLOUDY    41  41 100 NW3       29.87S

$$
WYZ014>020-022>026-101>103-261000-
CENTRAL WYOMING

CITY           SKY/WX    TMP DP  RH WIND       PRES   REMARKS
BIG PINEY      LGT RAIN  36  34  92 CALM      29.74F
PINEDALE       LGT RAIN  34  34 100 CALM      29.75S
DUBOIS         LGT SNOW  32  30  93 SE10G16   29.79S VSB 1   WCI  24
LANDER         LGT RAIN  39  37  92 W3        29.78F
RIVERTON       LGT RAIN  39  34  82 E16       29.80F WCI  30
CASPER         CLOUDY    38  35  89 NE10      29.84F WCI  31
DOUGLAS        CLOUDY    42  38  85 W5        29.85R

$$
WYZ021-027>030-104>119-261000-
SOUTHERN WYOMING

CITY           SKY/WX    TMP DP  RH WIND       PRES   REMARKS
EVANSTON       SNOW      34  33  96 NW8       29.72S VSB 1/4 WCI  27
KEMMERER       CLOUDY    36  36 100 N7        29.72S WCI  30
FORT BRIDGER   DRIZZLE   37  37 100 W5        29.73F WCI  34
ROCK SPRINGS   CLOUDY    40  35  83 SE12      29.71F WCI  33
DIXON          PTSUNNY   42  36  80 NE5       29.77F
RAWLINS        CLOUDY    39  35  86 E13       29.79F WCI  31
SARATOGA       CLOUDY    37  36  93 MISG      29.80F
LARAMIE        HVY RAIN  35  34  96 SW5       29.82S FOG     WCI  31
CHEYENNE       CLOUDY    42  40  92 E12       29.81F
TORRINGTON     CLOUDY    48  44  86 E5        29.79S
PINE BLUFFS    LGT RAIN  43  43 100 E13       29.81F

$$


USA.gov is the U.S. government's official web portal to all federal, state and local government web resources and services.